Weather History for ENGM - November, 2013

Change the Weather History Date:

Tuesday, November 19, 2013

  Actual Average Record
Temperature  
Mean Temperature 32 °F -  
Max Temperature 38 °F 31 °F 42 °F (2000)
Min Temperature 26 °F 22 °F 1 °F (2004)
Degree Days  
Heating Degree Days 33    
Moisture  
Dew Point 31 °F    
Average Humidity 90    
Maximum Humidity 100    
Minimum Humidity 70    
Precipitation  
Precipitation 0.01 in 0.10 in - ()
Sea Level Pressure  
Sea Level Pressure 29.45 in    
Wind  
Wind Speed 2 mph ()    
Max Wind Speed 8 mph    
Max Gust Speed -    
Visibility 3.7 miles    
Events Fog , Rain    
Averages and records for this station are not official NWS values.
T = Trace of Precipitation, MM = Missing Value Source: Averaged Metar Reports

Daily Weather History Graph

Daily Weather History Graph

Search for Another Location

Airport or City:

Trip Planner

Search our weather history database for the weather conditions in past years. The results will help you decide how hot, cold, wet, or windy it might be!

Date:

Astronomy

Nov. 19, 2013 Rise Set
Actual Time 8:25 AM CET 3:36 PM CET
Civil Twilight 7:34 AM CET 4:27 PM CET
Nautical Twilight 6:41 AM CET 5:20 PM CET
Astronomical Twilight 5:51 AM CET 6:09 PM CET
Moon 5:07 PM CET (11/19) 9:56 AM CET (11/19)
Length of Visible Light 8h 53m
Length of Day
7h 11m
Full, 97% of the Moon is Illuminated
Nov 19
Full
Nov 25
Last Quarter
Dec 3
New
Dec 9
First Quarter
Dec 17
Full

Hourly Weather History & Observations

Time (CET) Temp. Windchill Dew Point Humidity Pressure Visibility Wind Dir Wind Speed Gust Speed Precip Events Conditions
12:20 AM 37.4 °F - 37.4 °F 100% 29.42 in 0.8 mi NNW 2.3 mph - N/A Rain Rain
12:50 AM 37.4 °F - 37.4 °F 100% 29.42 in 1.2 mi Calm Calm - N/A Rain Light Rain
1:00 AM 38 °F - 38 °F 99%  in 1 mi Calm Calm - - Rain Light Rain
1:20 AM 37.4 °F - 37.4 °F 100% 29.42 in 1.0 mi Calm Calm - N/A Rain Light Rain
1:50 AM 37.4 °F - 37.4 °F 100% 29.39 in 0.9 mi Variable 1.2 mph - N/A Rain Light Rain
2:20 AM 37.4 °F - 37.4 °F 100% 29.39 in 0.5 mi Calm Calm - N/A Fog , Rain Light Rain
2:50 AM 37.4 °F - 37.4 °F 100% 29.39 in 0.5 mi Calm Calm - N/A Fog , Rain Light Rain
3:20 AM 37.4 °F - 35.6 °F 93% 29.39 in 0.4 mi Calm Calm - N/A Fog Fog
3:50 AM 35.6 °F - 35.6 °F 100% 29.39 in 0.2 mi Calm Calm - N/A Fog Fog
4:20 AM 35.6 °F - 33.8 °F 93% 29.39 in 0.5 mi Calm Calm - N/A   Mostly Cloudy
4:50 AM 33.8 °F - 33.8 °F 100% 29.39 in 0.5 mi Variable 1.2 mph - N/A Fog Fog
5:20 AM 33.8 °F - 33.8 °F 100% 29.39 in 1.1 mi Calm Calm - N/A   Mostly Cloudy
5:50 AM 33.8 °F - 33.8 °F 100% 29.39 in 1.3 mi Variable 1.2 mph - N/A   Mostly Cloudy
6:20 AM 35.6 °F - 33.8 °F 93% 29.39 in 6.2 mi Variable 2.3 mph - N/A   Mostly Cloudy
6:50 AM 33.8 °F 29.6 °F 33.8 °F 100% 29.39 in 6.2 mi SW 4.6 mph - N/A   Mostly Cloudy
7:00 AM 35 °F - 35 °F 97%  in 37 mi WSW 2.2 mph - -   Partly Cloudy
7:20 AM 35.6 °F 32.8 °F 35.6 °F 100% 29.39 in 6.2 mi WSW 3.5 mph - N/A   Partly Cloudy
7:50 AM 33.8 °F - 32.0 °F 93% 29.39 in 6.2 mi West 2.3 mph - N/A   Partly Cloudy
8:20 AM 33.8 °F - 32.0 °F 93% 29.42 in 6.2 mi Variable 2.3 mph - N/A   Partly Cloudy
8:50 AM 33.8 °F 30.8 °F 32.0 °F 93% 29.42 in 6.2 mi SW 3.5 mph - N/A   Partly Cloudy
9:20 AM 32.0 °F - 32.0 °F 100% 29.42 in 6.2 mi Variable 2.3 mph - N/A   Partly Cloudy
9:50 AM 33.8 °F - 32.0 °F 93% 29.42 in 6.2 mi Variable 2.3 mph - N/A   Partly Cloudy
10:20 AM 35.6 °F 32.8 °F 32.0 °F 87% 29.42 in 6.2 mi WNW 3.5 mph - N/A   Partly Cloudy
10:50 AM 35.6 °F - 32.0 °F 87% 29.44 in 6.2 mi Variable 2.3 mph - N/A   Partly Cloudy
11:20 AM 35.6 °F - 33.8 °F 93% 29.44 in 6.2 mi Variable 1.2 mph - N/A   Partly Cloudy
11:50 AM 35.6 °F 31.7 °F 32.0 °F 87% 29.44 in 6.2 mi WNW 4.6 mph - N/A   Partly Cloudy
12:20 PM 35.6 °F 32.8 °F 32.0 °F 87% 29.44 in 6.2 mi NW 3.5 mph - N/A   Partly Cloudy
12:50 PM 37.4 °F 34.9 °F 32.0 °F 81% 29.44 in 6.2 mi NW 3.5 mph - N/A   Partly Cloudy
1:00 PM 37 °F - 31 °F 71%  in 37 mi NW 2.2 mph - -   Partly Cloudy
1:20 PM 37.4 °F - 30.2 °F 75% 29.44 in - Variable 2.3 mph - N/A   Clear
1:50 PM 37.4 °F - 32.0 °F 81% 29.44 in - Variable 1.2 mph - N/A   Clear
2:20 PM 37.4 °F 32.8 °F 33.8 °F 87% 29.44 in - South 5.8 mph - N/A   Clear
2:50 PM 35.6 °F 30.7 °F 28.4 °F 75% 29.44 in 6.2 mi SW 5.8 mph - N/A   Partly Cloudy
3:20 PM 35.6 °F 30.7 °F 26.6 °F 70% 29.47 in - SW 5.8 mph - N/A   Clear
3:50 PM 33.8 °F 27.7 °F 28.4 °F 81% 29.47 in - SW 6.9 mph - N/A   Clear
4:20 PM 32.0 °F 24.8 °F 28.4 °F 87% 29.47 in - SSW 8.1 mph - N/A   Clear
4:50 PM 32.0 °F 24.8 °F 30.2 °F 93% 29.47 in - SW 8.1 mph - N/A   Clear
5:20 PM 32.0 °F 24.8 °F 28.4 °F 87% 29.47 in - SW 8.1 mph - N/A   Clear
5:50 PM 32.0 °F 25.6 °F 28.4 °F 87% 29.47 in - SW 6.9 mph - N/A   Clear
6:20 PM 30.2 °F 22.6 °F 26.6 °F 86% 29.50 in - SSW 8.1 mph - N/A   Clear
6:50 PM 28.4 °F 22.2 °F 26.6 °F 93% 29.50 in - SSW 5.8 mph - N/A   Clear
7:00 PM 32 °F - 28 °F 79%  in 47 mi SSW 6.7 mph - -   Partly Cloudy
7:20 PM 30.2 °F 26.7 °F 28.4 °F 93% 29.50 in - SSW 3.5 mph - N/A   Clear
7:50 PM 30.2 °F - 26.6 °F 86% 29.50 in - Variable 1.2 mph - N/A   Clear
8:20 PM 28.4 °F 24.6 °F 26.6 °F 93% 29.53 in - West 3.5 mph - N/A   Clear
8:50 PM 28.4 °F - 26.6 °F 93% 29.53 in - Variable 2.3 mph - N/A   Clear
9:20 PM 26.6 °F - 24.8 °F 93% 29.53 in - Variable 1.2 mph - N/A   Clear
9:50 PM 28.4 °F 24.6 °F 24.8 °F 86% 29.56 in - Variable 3.5 mph - N/A   Clear
10:20 PM 26.6 °F - 24.8 °F 93% 29.56 in - Variable 2.3 mph - N/A   Clear
10:50 PM 26.6 °F 20.0 °F 23.0 °F 86% 29.56 in - NW 5.8 mph - N/A   Clear
11:20 PM 28.4 °F 23.3 °F 23.0 °F 80% 29.59 in - NW 4.6 mph - N/A   Clear
11:50 PM 28.4 °F 24.6 °F 23.0 °F 80% 29.59 in - NNW 3.5 mph - N/A   Clear